[[{"header":{"parameterUnit":"m.s-1","parameterCategory":1,"la1":30.2991,"la2":30.254,"lo1":-89.0895,"lo2":-89.0444,"dy":0.0017,"dx":0.0017,"nx":28,"ny":28,"refTime":"2025-12-26T03:00:00:Z","depth":0,"parameterNumber":2,"parameterNumberName":"U-component_of_WINDS"},"data":[0,0,0,0,0,0,0,0,0,0,0,0,0,0,0,0,0,0,0,0,0,0,0,0,0,0,0,0,0,0,0,0,0,0,0,0,0,0,0,0,0,0,0,0,0,0,0,0,0,0,0,0,0,0,0,0,0,0,0.3849,0.3849,0,0.3905,0.3905,0.3906,0.3858,0.3856,0.3854,0.3852,0.3913,0.3917,0.392,0,0,0,0,0,0,0,0,0,0,0,0,0,0.3704,0.3707,0.3849,0.3849,0.385,0.3904,0.3905,0.3906,0.3858,0.3855,0.3853,0.3851,0.3912,0.3916,0.3921,0,0,0,0,0,0,0,0,0,0,0,0,0,0.3764,0.3708,0.3849,0.3833,0.3832,0.3904,0.3905,0.3906,0.3858,0.3855,0.3852,0.385,0.3911,0.3916,0.3921,0.4014,0,0,0.3937,0.394,0,0,0,0,0,0,0,0,0.3761,0.3769,0.3834,0.3834,0.3833,0.3871,0.3877,0.3943,0.3859,0.3848,0.3852,0.3848,0.3902,0.3908,0.3925,0.4017,0.402,0.3938,0.3941,0.3943,0.3945,0,0,0,0,0,0,0,0.3756,0.3767,0.3871,0.3835,0.3835,0.3824,0.3829,0.3889,0.3892,0.3849,0.3846,0.3853,0.3901,0.392,0.3926,0.4021,0.3938,0.3942,0.3946,0.3948,0.4191,0.4194,0,0,0,0,0,0,0.3753,0.3764,0.3869,0.3873,0.3788,0.3829,0.3834,0.3862,0.3891,0.3892,0.3855,0.385,0.3913,0.392,0.3928,0.4039,0.3943,0.3948,0.3951,0.4188,0.4192,0.4195,0,0,0,0,0,0,0.375,0.3763,0.3867,0.3817,0.3829,0.3834,0.3865,0.3865,0.3883,0.3895,0.3896,0.3874,0.3911,0.3921,0.3993,0.4041,0.3951,0.3955,0.4184,0.4189,0.4194,0.4262,0,0,0,0,0,0,0.3747,0.3763,0.3797,0.3818,0.3832,0.393,0.3868,0.3868,0.3892,0.3886,0.3913,0.3915,0.3909,0.3985,0.3998,0.4046,0.396,0.418,0.4186,0.4192,0.4256,0.4269,0.428,0,0,0,0,0,0.3742,0.3815,0.3799,0.3812,0.3876,0.3933,0.3941,0.3932,0.3896,0.3932,0.3939,0.3914,0.4033,0.3993,0.4007,0.4058,0.4177,0.4184,0.4191,0.425,0.4266,0.428,0,0,0,0,0,0,0.3802,0.3818,0.38,0.3883,0.3907,0.3924,0.3969,0.3949,0.3984,0.3978,0.3965,0.3972,0.4048,0.4059,0.4015,0.4149,0.4099,0.411,0.4139,0.4154,0.4166,0.4163,0.3964,0,0,0,0,0,0.3825,0.3868,0.388,0.3952,0.3965,0.3965,0.3989,0.398,0.4004,0.4015,0.4027,0.4054,0.4096,0.4126,0.4166,0.4256,0.4262,0.4297,0.431,0.432,0.433,0.4379,0.4395,0.422,0.422,0.4219,0,0,0.3873,0.3887,0.3916,0.3965,0.3982,0.4029,0.3974,0.4026,0.4061,0.4023,0.4092,0.4102,0.413,0.4211,0.4248,0.4224,0.4379,0.4329,0.4337,0.4342,0.4388,0.4405,0.4419,0.4225,0.4224,0.4223,0,0,0.3985,0.3999,0.406,0.4078,0.4104,0.4103,0.4118,0.4138,0.4143,0.4211,0.4184,0.4225,0.43,0.4321,0.4342,0.4459,0.4438,0.4472,0.4537,0.4585,0.4599,0.4611,0.4654,0.467,0.4482,0.4482,0.4482,0,0.4042,0.411,0.4095,0.4149,0.4172,0.4137,0.42,0.4218,0.4257,0.4274,0.4245,0.4337,0.4353,0.4439,0.4468,0.4485,0.4502,0.4471,0.4598,0.461,0.4621,0.4662,0.4678,0.4486,0.4486,0.4485,0.4485,0,0.4179,0.4227,0.4274,0.431,0.4338,0.4396,0.4391,0.442,0.4407,0.441,0.448,0.4498,0.4541,0.456,0.4549,0.4645,0.4629,0.4599,0.455,0.4642,0.4681,0.4696,0.4492,0.4491,0.4489,0.4488,0,0,0.4334,0.4359,0.4377,0.4393,0.4418,0.4455,0.4511,0.4552,0.4579,0.4605,0.4653,0.4716,0.4688,0.4711,0.4702,0.4743,0.4836,0.4708,0.4709,0.4733,0.4944,0.4968,0.4987,0.4821,0.4823,0.4826,0.4942,0,0.4448,0.4545,0.4532,0.4626,0.467,0.4637,0.4686,0.4707,0.471,0.4749,0.4752,0.4798,0.4757,0.4771,0.481,0.4817,0.4879,0.4808,0.4867,0.4869,0.4864,0.5007,0.5032,0.5142,0.4957,0.496,0.4962,0,0.4595,0.4625,0.4723,0.4741,0.4759,0.4803,0.4839,0.4876,0.4899,0.4898,0.4923,0.4906,0.4963,0.491,0.4989,0.4941,0.4964,0.497,0.4974,0.4982,0.4923,0.502,0.5176,0.5194,0.4985,0.4983,0.4981,0,0.47,0.4765,0.4832,0.4847,0.4869,0.4901,0.4911,0.4931,0.4956,0.4987,0.5004,0.5042,0.5063,0.5093,0.5087,0.5048,0.5168,0.5114,0.5171,0.5171,0.52,0.5199,0.5365,0.5211,0.5211,0.521,0.521,0,0.483,0.4892,0.488,0.4922,0.499,0.4974,0.5042,0.5048,0.5066,0.5109,0.5081,0.5123,0.511,0.5151,0.5145,0.5213,0.5222,0.5224,0.5223,0.5228,0.5228,0.5245,0.5239,0.5215,0.5214,0.5213,0.5212,0,0.4961,0.4955,0.5026,0.504,0.5044,0.5094,0.5106,0.5146,0.5145,0.52,0.5212,0.5212,0.5258,0.5253,0.5306,0.5302,0.5386,0.5374,0.5378,0.5376,0.5434,0.5429,0.5619,0.5643,0.5471,0.5473,0.5474,0,0.5045,0.5092,0.511,0.5136,0.5149,0.5191,0.5216,0.5201,0.5229,0.5257,0.5294,0.5337,0.5371,0.5446,0.5452,0.5491,0.5482,0.5545,0.5488,0.5492,0.5485,0.5483,0.5489,0.5557,0.5559,0.5561,0.5562,0,0.5197,0.5191,0.5228,0.5263,0.5293,0.532,0.5345,0.5368,0.5356,0.5388,0.5434,0.546,0.5512,0.5556,0.5593,0.5605,0.5583,0.5579,0.5595,0.5603,0.5604,0.5606,0.5411,0.5576,0.5575,0.5574,0.5573,0.5572,0.5309,0.5348,0.5367,0.5408,0.5425,0.5448,0.5486,0.5489,0.5527,0.5568,0.5556,0.5609,0.563,0.5677,0.5692,0.5734,0.5711,0.5733,0.5739,0.5745,0.5753,0.5595,0.574,0.574,0.5739,0.5739,0.5738,0,0.5461,0.547,0.5508,0.5543,0.5575,0.5548,0.5574,0.5603,0.5649,0.567,0.5703,0.5756,0.5798,0.5806,0.5846,0.5877,0.5868,0.5888,0.5887,0.5891,0.577,0.5754,0.5895,0.5895,0.5895,0.5895,0.5895,0.5895,0.5544,0.561,0.5606,0.568,0.5689,0.574,0.5757,0.5778,0.5795,0.5855,0.5888,0.5892,0.5908,0.5948,0.5986,0.5987,0.6004,0.6029,0.6027,0.5915,0.5899,0.5884,0.5869,0.6032,0.6032,0.6144,0.6145,0.6146]},{"header":{"parameterUnit":"m.s-1","parameterCategory":1,"la1":30.2991,"la2":30.254,"lo1":-89.0895,"lo2":-89.0444,"dy":0.0017,"dx":0.0017,"nx":28,"ny":28,"refTime":"2025-12-26T03:00:00:Z","depth":0,"parameterNumber":3,"parameterNumberName":"V-component_of_WINDS"},"data":[0,0,0,0,0,0,0,0,0,0,0,0,0,0,0,0,0,0,0,0,0,0,0,0,0,0,0,0,0,0,0,0,0,0,0,0,0,0,0,0,0,0,0,0,0,0,0,0,0,0,0,0,0,0,0,0,0,0,4.6217,4.6218,0,4.6277,4.6278,4.6278,4.624,4.6238,4.6236,4.6234,4.6292,4.6295,4.6298,0,0,0,0,0,0,0,0,0,0,0,0,0,4.6064,4.6067,4.6217,4.6218,4.6219,4.6277,4.6278,4.6278,4.624,4.6238,4.6236,4.6234,4.6291,4.6295,4.6298,0,0,0,0,0,0,0,0,0,0,0,0,0,4.6127,4.6068,4.6217,4.6206,4.6206,4.6277,4.6278,4.6279,4.624,4.6238,4.6235,4.6233,4.629,4.6294,4.6299,4.6382,0,0,4.6314,4.6316,0,0,0,0,0,0,0,0,4.6124,4.6133,4.6207,4.6207,4.6207,4.6248,4.6245,4.6313,4.6241,4.6227,4.6234,4.6231,4.6279,4.6285,4.6302,4.6385,4.6387,4.6314,4.6317,4.6319,4.632,0,0,0,0,0,0,0,4.6119,4.613,4.6241,4.6208,4.6208,4.6197,4.6203,4.6257,4.6267,4.6228,4.6226,4.6233,4.6279,4.6297,4.6303,4.6388,4.6314,4.6318,4.6321,4.6323,4.654,4.6542,0,0,0,0,0,0,4.6117,4.6127,4.6239,4.6242,4.6158,4.6202,4.6209,4.6238,4.6267,4.6269,4.6236,4.6231,4.629,4.6297,4.6305,4.6403,4.6319,4.6323,4.6326,4.6537,4.654,4.6543,0,0,0,0,0,0,4.6113,4.6127,4.6236,4.6184,4.6197,4.6207,4.624,4.624,4.6259,4.6272,4.6273,4.6253,4.6289,4.6298,4.6363,4.6404,4.6326,4.633,4.6533,4.6538,4.6542,4.6601,0,0,0,0,0,0,4.6109,4.6126,4.6159,4.6185,4.62,4.6296,4.6243,4.6243,4.6268,4.6263,4.6289,4.6291,4.6287,4.6356,4.6368,4.641,4.6334,4.653,4.6535,4.6541,4.6595,4.6607,4.6616,0,0,0,0,0,4.6104,4.6173,4.6161,4.6175,4.6242,4.6298,4.6306,4.6302,4.6271,4.6304,4.6312,4.629,4.6398,4.6363,4.6376,4.642,4.6527,4.6534,4.654,4.659,4.6604,4.6616,0,0,0,0,0,0,4.6151,4.6176,4.6164,4.6244,4.6269,4.6291,4.6333,4.6317,4.6351,4.6345,4.6336,4.6342,4.641,4.6421,4.6382,4.65,4.6457,4.6467,4.6491,4.6505,4.6515,4.6511,4.6338,0,0,0,0,0,4.6171,4.6216,4.6235,4.6303,4.6317,4.6323,4.6347,4.6341,4.6366,4.6377,4.639,4.6414,4.6453,4.6479,4.6516,4.6596,4.66,4.6632,4.6643,4.6651,4.666,4.6701,4.6715,4.6565,4.6565,4.6565,0,0,4.6213,4.6232,4.6261,4.6313,4.6333,4.6377,4.6332,4.6382,4.6415,4.6384,4.6446,4.6456,4.6483,4.6555,4.6588,4.6567,4.6702,4.666,4.6666,4.667,4.6709,4.6724,4.6736,4.6569,4.6568,4.6568,0,0,4.6311,4.6331,4.639,4.6409,4.6439,4.6442,4.6456,4.648,4.6486,4.6549,4.6526,4.6563,4.6631,4.6651,4.667,4.6773,4.6753,4.6784,4.684,4.6881,4.6893,4.6903,4.6939,4.6952,4.6793,4.6793,4.6793,0,4.6359,4.6428,4.6421,4.6473,4.6496,4.647,4.6528,4.6547,4.6587,4.6603,4.6578,4.6662,4.6678,4.6754,4.6779,4.6795,4.6809,4.6782,4.6892,4.6902,4.6912,4.6946,4.696,4.6796,4.6796,4.6796,4.6795,0,4.6484,4.6531,4.6575,4.6615,4.6642,4.6697,4.6697,4.6725,4.6716,4.6721,4.6783,4.6801,4.6841,4.6858,4.6849,4.6932,4.6918,4.6893,4.685,4.693,4.6962,4.6975,4.6802,4.68,4.6799,4.6798,0,0,4.6617,4.6651,4.6667,4.6684,4.6713,4.6749,4.6801,4.684,4.6864,4.6891,4.6934,4.6991,4.6967,4.6988,4.6981,4.7017,4.7096,4.6987,4.6987,4.7006,4.7187,4.7206,4.7222,4.7083,4.7085,4.7087,4.7185,0,4.6717,4.681,4.6804,4.6891,4.6933,4.6908,4.6953,4.6975,4.698,4.7015,4.702,4.706,4.7026,4.7039,4.7073,4.7079,4.7132,4.7072,4.7121,4.7123,4.7116,4.7239,4.726,4.7351,4.7197,4.7199,4.7201,0,4.6847,4.6879,4.697,4.6992,4.7009,4.705,4.7085,4.7119,4.7142,4.7143,4.7166,4.7152,4.7202,4.7157,4.7225,4.7184,4.7204,4.7209,4.7213,4.7218,4.7168,4.7247,4.738,4.7394,4.7221,4.7219,4.7218,0,4.6935,4.7,4.7063,4.7078,4.7104,4.7133,4.7145,4.7166,4.7189,4.7218,4.7233,4.7267,4.7286,4.7312,4.7307,4.7275,4.7377,4.7331,4.7378,4.7378,4.7402,4.74,4.754,4.7413,4.7413,4.7413,4.7413,0,4.7048,4.7104,4.7102,4.7141,4.7203,4.7194,4.7255,4.7263,4.7281,4.7319,4.7299,4.7335,4.7326,4.7361,4.7357,4.7413,4.7422,4.7423,4.7422,4.7426,4.7425,4.7439,4.7432,4.7416,4.7416,4.7415,4.7414,0,4.7157,4.7158,4.7224,4.7243,4.7249,4.7294,4.7309,4.7344,4.7346,4.7395,4.7406,4.7409,4.7449,4.7446,4.7491,4.7488,4.7558,4.7549,4.7551,4.7549,4.7596,4.7592,4.775,4.777,4.763,4.7631,4.7632,0,4.723,4.7272,4.7296,4.732,4.7334,4.7374,4.7397,4.739,4.7415,4.7443,4.7474,4.7512,4.7543,4.7607,4.7613,4.7646,4.7638,4.7691,4.7643,4.7645,4.7638,4.7636,4.764,4.7701,4.7702,4.7703,4.7704,0,4.7358,4.7356,4.7392,4.7427,4.7455,4.7482,4.7507,4.7528,4.7522,4.755,4.7591,4.7615,4.766,4.7698,4.773,4.774,4.7721,4.7719,4.7732,4.7737,4.7736,4.7737,4.7577,4.7716,4.7715,4.7714,4.7713,4.7713,4.7451,4.7488,4.751,4.7549,4.7566,4.7589,4.7623,4.7629,4.7663,4.7701,4.7693,4.7739,4.7758,4.7798,4.7812,4.7846,4.7827,4.7845,4.785,4.7855,4.786,4.773,4.7852,4.7851,4.7851,4.7851,4.785,0,4.7579,4.7591,4.7627,4.7662,4.7693,4.7672,4.7697,4.7724,4.7765,4.7785,4.7815,4.786,4.7896,4.7904,4.7937,4.7963,4.7955,4.7972,4.7971,4.7973,4.7875,4.7861,4.7978,4.7978,4.7978,4.7978,4.7978,4.7978,4.7649,4.7709,4.7709,4.7777,4.7788,4.7833,4.7849,4.7869,4.7885,4.7937,4.7967,4.7972,4.7986,4.802,4.8052,4.8053,4.8066,4.8087,4.8084,4.7993,4.798,4.7968,4.7955,4.8089,4.809,4.8179,4.818,4.8181]}]]